Location: Kielce
(50.8833°N, 20.6167°E)
Time: 22:37:32
(UTC+02:00)

SR - Pass Details

Date: 24 April 2021
Orbit: 573 x 882 km, 66.7° (Epoch: 09 May)

Event Time Altitude Azimuth Distance (km) Brightness Sun altitude
Rises 08:39:58 0° 243° (WSW) 3,383 ? 29.4°
Reaches altitude 10° 08:42:32 10° 251° (WSW) 2,483 ? 29.8°
Maximum altitude 08:48:00 41° 321° (NW) 1,249 ? 30.6°
Drops below altitude 10° 08:53:38 10° 31° (NNE) 2,549 ? 31.5°
Sets 08:56:18 0° 39° (NE) 3,483 ? 31.9°
